Meath Environmental Platform

Observations for Trim Market St

Time AQI Temp °C Hum % Pres Pa CO μg/m³ H₂S μg/m³ NO μg/m³ NO₂ μg/m³ O₃ μg/m³ SO₂ μg/m³ PM1 μg/m³ PM2.5 μg/m³ PM10 μg/m³
Wednesday 26 August 2026
06:49 2 17 85 2,147,483,647 0.24 0 1.46 13.89 36.61 0 5.7 6.27 9.68
06:48 2 17 85 2,147,483,647 0.25 0 1.24 14.47 39 0 7.13 9.32 15.06
06:47 2 17 85 2,147,483,647 0.25 0 1.34 13.59 36.11 0 6.41 8.85 13.98
06:46 2 17 85 2,147,483,647 0.25 0 1.36 17.04 38.33 0 4.99 5.6 10.76
06:45 2 17 85 2,147,483,647 0.24 0 1.2 13.79 36.38 0 6.41 7.46 12.37
06:44 2 17 85 2,147,483,647 0.25 0 1.08 13.9 37.98 0 6.41 6.99 10.76
06:43 2 16.9 85 2,147,483,647 0.26 0 1.03 15.35 33.8 0 5.7 6.27 9.14
06:41 2 16.9 85 2,147,483,647 0.25 0 1.2 14.5 35.04 0 5.7 6.52 10.75
06:40 2 16.9 85 2,147,483,647 0.24 0 1.35 13.73 47.45 0 7.13 7.45 11.29
06:38 2 16.9 85 2,147,483,647 0.24 0 1.41 14.62 36.73 0 5.7 6.99 11.29
06:37 2 16.9 85 2,147,483,647 0.26 0 1.52 14.14 37.08 0 4.28 5.13 8.61
06:35 2 16.9 85 2,147,483,647 0.26 0 1.43 15.12 40.13 0 4.28 5.13 11.29
06:28 2 16.9 85 2,147,483,647 0.25 0 1.53 15.68 36.97 0 6.41 6.52 10.75
06:23 2 16.9 85 2,147,483,647 0.26 0 1.33 14.52 38.13 0 4.99 6.05 10.75
06:22 2 16.9 85 2,147,483,647 0.26 0 1.32 14.16 38.51 0 6.41 7.91 13.97
06:20 2 16.9 85 2,147,483,647 0.25 0 1.49 14.06 36.85 0 6.41 7.44 12.89
06:19 2 16.9 85 2,147,483,647 0.26 0 1.62 16.35 38.75 0 5.7 6.51 12.36
06:18 2 16.9 85 2,147,483,647 0.25 0 1.64 14.54 32.61 0 5.7 6.27 9.68
06:17 2 16.9 85 2,147,483,647 0.25 0 1.65 15.43 39.31 0 4.99 6.98 10.75
06:14 2 16.9 85 2,147,483,647 0.26 0 1.34 16.04 41.09 0 6.41 7.9 12.36